#timestamp,LO_Frequency,Hit,StdDev 
1540652415.6,286046998.2,N
1540652435.5,286046998.8,N
1540652455.3,286046999.4,N
1540652505.2,286047000.7,E
1540652515.1,286046998.3,N
1540652535.8,286047000.8,P
1540652555.7,286047000.3,N
1540652575.5,286047001.1,N
1540652595.4,286047000.4,N
1540652615.2,286046998.1,N
1540652635.0,286046998.1,N
1540652635.9,286046998.1,N
1540652655.8,286046998.9,N
1540652675.6,286046999.0,N
1540652695.4,286046999.3,N
1540652715.3,286046998.5,N
1540652735.0,286047000.2,N
1540652735.9,286047000.2,N
1540652755.7,286047000.7,N
1540652775.6,286046998.8,N
1540652795.4,286046999.2,N
1540652815.3,286046999.0,N
1540652835.1,286046999.4,N
1540652836.0,286046999.4,N
1540652855.8,286046997.1,Y
1540652875.7,286046998.7,P
1540652895.5,286046999.0,N
1540652915.3,286046999.0,P
1540652935.2,286046998.1,Y
1540652955.0,286047002.6,P
1540652955.9,286047002.6,N
1540652975.8,286047002.0,N
1540652995.6,286047001.9,N
1540653015.4,286047003.1,N
1540653035.3,286047008.2,Y
1540653055.1,286047012.4,P
1540653075.9,286047026.2,P
1540653095.7,286047024.5,N
1540653115.5,286047021.2,N
1540653135.4,286047017.9,N
1540653155.2,286047014.7,N
1540653175.0,286047012.5,N
1540653175.9,286047012.5,N
1540653195.8,286047011.0,N
1540653215.6,286047012.0,N
1540653235.5,286047009.5,N
1540653255.3,286047009.5,N
1540653275.1,286047010.2,N
1540653295.9,286047010.3,N
1540653315.7,286047008.7,N
1540653335.6,286047007.2,N
1540653355.4,286047004.5,N
1540653375.2,286047015.5,N
1540653395.1,286047019.2,Y
1540653396.0,286047019.2,P
1540653415.8,286047006.5,N
1540653435.7,286047005.4,N
1540653455.5,286047004.1,N
1540653475.3,286047000.0,N
1540653495.2,286046998.1,N
1540653515.0,286046995.2,N
1540653515.9,286046995.2,N
1540653535.8,286046995.0,N
1540653555.6,286046995.0,N
1540653575.4,286047001.8,N
1540653595.3,286047004.5,N
1540653615.1,286047010.4,N
1540653635.8,286047013.9,N
1540653655.7,286047009.4,N
1540653675.5,286047008.9,N
1540653695.3,286047006.0,N
1540653715.2,286047001.4,N
1540653735.0,286047000.0,N
1540653735.9,286047000.0,N
1540653755.8,286046999.2,N
1540653775.6,286046997.5,N
1540653795.5,286046995.8,N
1540653815.3,286046996.1,N
1540653835.1,286046996.2,N
1540653855.9,286046993.7,N
1540653875.7,286046993.5,N
1540653895.5,286046992.2,N
1540653915.4,286046992.7,N
1540653935.2,286046992.7,N
1540653955.1,286046990.2,N
1540653956.0,286046990.2,N
1540653975.8,286046990.3,N
1540653995.6,286046992.4,N
1540654015.5,286046996.2,N
1540654035.3,286046999.2,N
1540654055.2,286047001.7,N
1540654075.9,286047014.7,N
1540654095.7,286047012.5,N
1540654115.6,286047010.5,N
1540654135.4,286047007.2,N
1540654155.3,286047004.1,N
1540654175.1,286047000.3,N
1540654176.0,286047000.3,N
1540654195.8,286047005.6,N
1540654215.7,286047005.8,N
1540654235.5,286047003.6,N
1540654255.3,286047001.6,N
1540654275.2,286046998.6,N
1540654295.0,286046996.9,N
1540654295.9,286046996.9,N
1540654315.8,286046996.4,N
1540654335.6,286046996.6,N
1540654355.4,286047006.3,N
1540654375.3,286047009.0,N
1540654395.1,286047009.4,N
1540654415.8,286047006.4,N
1540654435.7,286047005.8,N
1540654455.5,286047001.8,N
1540654475.4,286047003.1,N
1540654495.2,286047000.0,N
1540654515.0,286046997.2,N
1540654515.9,286046997.2,N
1540654535.8,286046997.4,N
1540654555.6,286046995.0,N
1540654575.4,286046996.0,N
1540654595.3,286046993.8,N
1540654615.1,286046996.0,N
1540654635.9,286046996.4,N
1540654655.7,286046992.2,N
1540654675.5,286046992.2,N
1540654695.4,286046992.8,N
1540654715.2,286046991.2,N
1540654735.0,286046987.6,N
1540654736.0,286046987.6,N
1540654755.8,286046988.1,N
1540654775.6,286046987.0,N
1540654795.5,286046987.2,N
1540654815.3,286046986.7,N
1540654835.1,286046986.2,N
1540654855.9,286046985.5,N
1540654875.7,286046986.1,N
1540654895.5,286046984.3,N
1540654915.4,286046984.6,N
1540654935.2,286046984.8,N
1540654955.1,286046984.8,N
1540654956.0,286046984.8,N
1540654975.8,286046985.0,N
1540654995.6,286046983.0,Y
1540655015.5,286046990.8,P
1540655035.3,286046988.5,P
1540655055.1,286046991.0,P
1540655075.9,286046988.7,Y
1540655095.7,286047001.2,P
1540655115.6,286047000.6,N
1540655135.4,286047005.5,N
1540655155.2,286047007.8,N
1540655175.1,286047013.4,N
1540655176.0,286047013.4,N
1540655195.8,286047014.7,N
1540655215.7,286047016.1,N
1540655235.5,286047016.4,N
1540655255.3,286047017.2,N
1540655275.2,286047020.4,N
1540655295.0,286047022.4,N
1540655295.9,286047022.4,N
1540655315.7,286047023.2,N
1540655335.6,286047019.8,N
1540655355.4,286047014.6,N
1540655375.3,286047011.0,N
1540655395.1,286047009.7,N
1540655396.0,286047009.7,N
1540655415.8,286047006.2,N
1540655435.7,286047004.9,N
1540655455.5,286047004.3,N
1540655475.3,286047011.5,N
1540655495.2,286047018.5,N
1540655515.0,286047018.1,N
1540655515.9,286047018.1,N
1540655535.8,286047014.5,N
1540655555.6,286047013.9,N
1540655575.4,286047009.5,N
1540655595.3,286047006.1,N
1540655615.1,286047006.7,N
1540655635.8,286047004.8,N
1540655655.7,286047005.7,N
1540655675.5,286047003.8,N
1540655695.4,286047001.3,N
1540655715.2,286047002.0,N
1540655735.0,286047002.2,N
1540655735.9,286047002.2,N
1540655755.8,286047002.8,N
1540655775.6,286047000.3,N
1540655795.4,286047000.9,N
1540655815.3,286046998.7,N
1540655835.1,286046998.7,N
1540655855.9,286046996.9,N
1540655875.7,286046997.6,N
1540655895.5,286046998.0,N
1540655915.4,286046997.2,N
1540655935.2,286046996.7,N
1540655955.0,286046998.6,N
1540655955.9,286046998.6,N
1540655975.8,286047004.9,N
1540655995.6,286047008.6,N
